Regional Weather Roundup
Issued by NWS Charleston, SC

Current Version | Previous Version | Graphics & Text | Print | Product List | Glossary On
Versions: 1 2 3 4 5 6 7 8 9 10 11 12 13 14 15 16 17 18 19 20 21 22 23 24 25 26 27 28 29 30 31 32 33 34 35 36 37 38 39 40 41 42 43 44 45 46 47 48 49 50
000
ASUS42 KCHS 230727
RWRCHS

REGIONAL WEATHER ROUNDUP
NATIONAL WEATHER SERVICE CHARLESTON SC
300 AM EDT SAT MAY 23 2015

NOTE: "FAIR" INDICATES FEW OR NO CLOUDS BELOW 12,000 FEET WITH NO
SIGNIFICANT WEATHER AND/OR OBSTRUCTIONS TO VISIBILITY.

NOT ALL STATIONS ARE QUALITY CONTROLLED BY THE NATIONAL
WEATHER SERVICE. USE DATA WITH CAUTION...ESPECIALLY
DEWPOINT OBSERVATIONS.

SCZ027-030-031-034>040-042>050-230800-
...SOUTHEAST SOUTH CAROLINA...

CITY           SKY/WX    TMP DP  RH WIND       PRES   REMARKS
N CHARLESTON   CLEAR     62  59  90 NE6       30.25F
WATERFRONT PAR   N/A     70  64  81 NE7       30.23F
MOUNT PLEASANT FAIR      61  61 100 CALM      30.26S
JOHNS ISLAND   SUNNY     63  61  94 CALM      30.25S
PINOPOLIS        N/A     68  63  83 CALM      30.19F
MONCKS CORNER  FAIR      59  55  88 CALM      30.27R
SUMMERVILLE    FAIR      59  59 100 CALM      30.27S
BEAUFORT MCAS  CLEAR     65  63  93 NE6       30.24F
BEAUFORT ARPT  FAIR      64  64 100 CALM      30.24S
HILTON HEAD IS CLEAR     70  63  78 N6        30.25S
WALTERBORO     SUNNY     55  54  94 CALM      30.27S
ALLENDALE      FAIR      57  57 100 CALM      30.26R

...SOUTHERN MIDLANDS AND PEE DEE...

CITY           SKY/WX    TMP DP  RH WIND       PRES   REMARKS
GEORGETOWN     NOT AVBL
KINGSTREE      NOT AVBL
ORANGEBURG     CLEAR     58  54  86 CALM      30.27S
BARNWELL       FAIR      57  54  88 CALM      30.27S
AIKEN          FAIR      55  46  71 E3        30.30S
MANNING        FAIR      52  46  82 CALM      30.28R
COLUMBIA       CLEAR     54  48  80 CALM      30.27S
SUMTER         CLEAR     55  48  80 NE5       30.26S
FLORENCE       CLEAR     56  52  86 CALM      30.28S
MYRTLE BEACH   CLEAR     61  55  82 N3        30.29S
N MYRTLE BEACH CLEAR     58  57  97 N3        30.27S

$$

GAZ063-065-086>088-099>101-113>116-118-119-134>141-150-230800-
...SOUTHEAST GEORGIA...

CITY           SKY/WX    TMP DP  RH WIND       PRES   REMARKS
SAVANNAH ARPT  CLEAR     61  58  90 CALM      30.24F
HUNTER AAF     CLEAR     62  61  97 CALM      30.21F
FORT STEWART   NOT AVBL
STATESBORO     CLEAR     56  32  39 CALM      30.24F
SYLVANIA       SUNNY     57  57  99 CALM      30.25F
CLAXTON        FAIR      55  55 100 CALM      30.24S

...CSRA...CENTRAL AND FAR SOUTHEAST GEORGIA...

CITY           SKY/WX    TMP DP  RH WIND       PRES   REMARKS
THOMSON        CLEAR     54  54 100 CALM      30.31S
AUGUSTA-BUSH   CLEAR     52  51  97 CALM      30.26S FOG
AUGUSTA-DANIEL CLEAR     66  49  54 E5        30.27S
SWAINSBORO     FAIR     N/A N/A N/A CALM      30.25F
VIDALIA        CLEAR     63  61  94 CALM      30.24S
EASTMAN        FAIR      58  58 100 CALM      30.26S FOG
HAZLEHURST     FAIR      66  63  88 SE3       30.22F
ALMA           CLEAR     61  59  93 CALM      30.23F
WAYCROSS       CLEAR     63  63  99 CALM      30.22F
JESUP          FAIR      63  61  94 CALM      30.23S
BAXLEY         FAIR      63  61  94 CALM      30.22F
BRUNSWICK      CLEAR     64  59  82 NE5       30.23S
SAINT SIMONS   NOT AVBL

$$

SCZ027-028-034-036>038-045-046-048>050-GAZ119-141-230800-
...LAKE AND SUPPLEMENTAL COASTAL OBSERVATIONS...

STATION/POSITION TIME  TEMP    WIND        PRES    WAVE   SWELL
                       AIR SEA DIR/SP/G            HT/PER HT/PER/DIR
                 (UTC) (F)     (DEG/KT/KT) (MB)    (FT/S) (FT/S/D)
UPR LAKE MARION  NOT AVBL
WINYAH BAY       0645   69      80/  6     1024.0S
LAKE MURRAY      0600   64      CALM  /  2 1024.7S
ACE BASIN NERRS  NOT AVBL
FORT PULASKI     0700   73 78   70/ 10/ 12 1024.2F
SAPELO ISLAND    0700   69      50/  5     1024.0S

$$

ANZ835-935-AMZ111-154-330-350-352-354-370-450-454-472-230800-
...C-MAN AND BUOY OBSERVATIONS...

STATION/POSITION TIME  TEMP    WIND        PRES    WAVE   SWELL
                       AIR SEA DIR/SP/G            HT/PER HT/PER/DIR
                 (UTC) (F)     (DEG/KT/KT) (MB)    (FT/S) (FT/S/D)
BUOY 41004       0650   72 75   40/ 16/ 17 1023.4F   3/ 6   2/ 8
BUOY 41008       0650   73 76   60/ 14/ 16 1023.6R   3/ 7   2/ 70/ 7
FOLLY BEACH CMAN 0700   71      70/  9/ 12 1024.3F
CAPERS NEARSHORE 0608   72      70/ 12/ 16 1024.5F
FRIPP NEARSHORE  0600   72      80/ 12/ 14 1023.2F


STATION/POSITION TIME  TEMP    WIND        PRES    WAVE   SWELL
                       AIR SEA DIR/SP/G            HT/PER HT/PER/DIR
                 (UTC) (F)     (DEG/KT/KT) (MB)    (FT/S) (FT/S/D)
5E ST. MARYS GA  0621      76                N/A     4/ 6
FRYING PAN BUOY  0650   71 74   40/ 12/ 16 1025.2F   2/ 6   2/110/ 6
BUOY 41025       0650   68 77  320/  4/  6 1025.1F   3/ 9   3/ 70/ 9
CAPE LOOKOUT NC  0700   67     360/  1/  1 1025.0F
BUOY 41002       0650   71 74   50/ 16/ 19 1022.8F   6/ 9   3/ 20/ 9
BUOY 41010       0620   79 81  350/  6/  8 1020.8F
ST AUGUSTINE FL  0700   74 75   30/ 16/ 18 1022.7F


$$


USA.gov is the U.S. government's official web portal to all federal, state and local government web resources and services.